Location: Góry Miechowskie
(50.3599°N, 20.1803°E)
Time: 16:50:03
(UTC+00:00)

A-11 Canister half - Pass Details

Date: 21 September 2024
Orbit: 1515 x 1685 km, 47.2° (Epoch: 14 October)

Event Time Altitude Azimuth Distance (km) Brightness Sun altitude
Rises 22:23:27 0° 288° (WNW) 4,671 11.8 -39.4°
Reaches altitude 10° 22:27:05 10° 276° (W) 3,679 11.0 -39.4°
Enters shadow 22:28:50 15° 268° (W) 3,266 10.7 -39.4°
